Wetbulb
56.18 54.57 53.96 53.93 54.00 54.02 52.83 53.03 53.21 52.94 52.40 51.20 50.71 50.28 50.11 49.50 49.82 49.04 49.02 49.47 49.28 49.97 50.51 50.19 50.89 51.51 51.51 53.28 53.92 55.48 54.84 54.92 52.45 53.38 55.31 54.71 54.07 54.62 53.38 52.93 52.59 50.85 50.83
53.72 53.23 53.51 53.37 52.36 51.96 51.99 52.80 52.74 51.32 50.72 50.53 49.95 48.99 49.35 49.89 49.98 49.85 48.83 48.83 48.40 48.03 49.14 48.78 49.28 50.86 50.64 51.50 52.04 52.51 54.44 55.28 53.69 51.78 53.01 52.49 52.62 53.15 52.05 51.23 50.99 50.90 50.01
52.56 51.74 51.85 51.97 50.52 51.34 51.53 51.80 51.72 50.60 49.82 50.02 49.54 49.56 49.49 50.32 50.01 49.94 49.36 49.05 49.15 48.29 48.63 48.82 49.12 50.18 50.25 51.21 51.97 52.34 52.92 53.91 53.47 52.52 50.68 51.29 51.04 51.37 49.93 50.27 49.92 50.15 50.89
51.26 50.26 50.02 49.99 51.11 50.35 50.91 51.29 51.54 50.96 49.40 48.91 50.34 50.05 50.51 50.25 49.67 49.47 49.81 48.60 48.33 48.40 48.73 49.56 49.05 48.49 47.97 47.94 50.72 49.07 51.65 52.48 52.53 52.22 49.99 48.96 49.50 50.37 50.18 48.52 47.20 48.39 48.35
49.34 48.73 48.78 49.47 49.64 50.89 51.02 52.19 51.97 51.53 51.35 51.91 51.71 51.49 51.59 51.52 48.17 48.55 49.14 48.26 47.87 47.51 47.31 47.51 48.24 49.67 49.32 48.33 47.01 46.70 47.61 50.44 51.07 50.81 48.43 47.87 47.87 47.67 46.86 47.84 46.26 47.04 49.15
48.07 47.40 48.64 49.08 50.59 51.02 51.59 51.71 52.03 52.20 52.45 52.58 52.47 51.92 51.69 49.27 45.98 47.50 48.84 48.52 47.70 46.70 45.94 46.81 47.31 47.92 47.75 47.57 47.43 48.35 47.57 46.34 48.20 50.21 48.67 46.88 47.20 47.28 47.62 46.10 45.72 45.91 45.44
47.06 48.52 49.17 49.99 50.21 51.28 51.42 51.64 51.72 52.18 52.36 52.07 52.22 52.43 51.62 49.72 45.15 45.20 48.41 49.33 47.85 47.56 47.89 47.84 47.61 47.89 46.49 46.42 47.07 47.05 47.60 47.52 47.72 47.31 48.58 48.00 47.20 47.67 47.13 45.83 46.54 47.90 46.15
48.27 49.40 49.91 50.45 49.76 51.45 51.71 51.72 52.63 53.17 52.10 52.59 52.16 52.24 51.75 47.77 45.03 44.38 46.31 49.54 48.93 49.32 47.78 47.51 48.71 46.37 45.14 44.55 46.13 45.72 45.95 46.97 46.63 47.66 50.52 49.49 48.91 48.99 48.59 48.08 48.67 48.78 48.48
48.71 49.40 50.24 50.83 50.43 50.86 51.41 51.49 52.37 52.36 52.66 52.54 52.20 51.99 51.52 47.79 43.76 43.58 46.92 49.81 49.16 48.96 46.71 45.35 45.80 45.21 42.86 43.02 47.06 45.80 45.11 45.76 48.34 47.84 47.31 46.10 45.34 46.20 48.57 49.25 49.27 47.65 45.48
49.18 49.88 50.82 51.30 51.31 50.92 51.67 52.28 52.80 52.74 52.22 52.51 52.03 51.99 48.93 49.83 42.96 43.24 45.06 50.50 48.36 48.66 47.70 46.63 43.74 42.74 41.73 41.90 46.85 46.37 43.76 44.92 47.00 47.85 48.23 48.11 48.64 48.48 49.18 50.81 50.09 48.68 45.79
50.81 51.24 51.71 52.27 52.06 51.81 52.24 52.37 52.29 52.12 51.67 51.84 51.57 51.55 50.09 47.50 47.10 42.75 42.77 49.07 47.96 47.16 46.17 45.00 43.56 41.70 41.10 41.49 43.26 44.31 44.24 46.19 46.59 46.99 47.58 48.14 48.63 48.28 48.26 48.00 48.06 47.11 46.40
51.09 51.21 50.26 51.97 51.28 51.31 51.61 51.68 51.38 51.15 50.50 50.12 50.39 50.37 49.93 50.49 43.92 43.69 42.32 42.45 45.02 45.94 45.34 45.54 43.63 40.88 40.85 40.97 43.52 42.30 43.07 45.69 46.28 45.63 45.85 45.97 46.05 45.53 45.32 45.52 45.89 45.62 45.89
49.67 50.73 50.68 52.17 51.08 51.74 50.51 49.53 47.52 47.79 48.05 47.15 47.32 45.70 45.09 46.16 47.85 44.74 43.20 42.81 44.08 44.51 44.57 43.30 42.34 41.67 41.89 42.91 42.26 43.03 44.49 46.09 45.04 44.24 44.35 45.14 46.59 46.51 46.33 44.94 44.75 44.28 44.28
49.37 49.70 49.98 49.70 50.39 49.74 48.91 48.92 46.04 45.42 45.87 45.37 44.40 43.32 43.59 44.47 44.54 45.11 45.87 46.82 44.97 45.92 45.49 44.43 43.30 42.91 42.52 43.39 44.16 45.34 45.94 46.14 45.49 44.37 44.53 45.76 46.69 46.00 45.04 44.29 42.48 42.31 41.41
48.97 49.06 49.09 49.43 49.84 49.93 45.84 45.02 46.41 44.21 42.52 43.70 43.26 43.21 41.88 41.13 41.37 40.07 40.66 43.24 43.83 42.79 43.91 42.89 41.94 42.23 41.64 42.30 43.59 44.44 45.24 46.24 45.24 45.45 45.08 44.57 44.25 43.53 42.76 43.37 42.60 41.84 40.13
47.88 47.13 47.56 48.37 50.02 50.03 46.77 44.62 40.71 40.90 40.32 39.34 39.37 39.70 42.68 40.47 39.24 39.48 39.94 39.58 40.15 40.70 42.14 40.99 40.54 40.91 40.84 41.47 42.52 43.75 45.36 45.51 45.28 45.00 44.79 44.60 43.19 42.61 42.36 43.08 43.37 42.83 41.90
48.21 48.23 48.41 48.45 47.87 46.39 46.70 44.74 42.80 43.37 40.37 39.89 39.09 39.52 38.80 38.31 38.73 39.04 40.12 39.30 39.43 41.06 41.02 40.81 40.74 41.09 41.46 42.31 43.36 44.02 43.90 45.02 45.41 45.28 45.44 43.84 43.37 43.24 42.70 42.64 42.86 42.44 41.46
49.21 45.06 48.39 48.19 47.96 45.49 44.37 43.24 42.63 41.34 40.20 40.34 40.69 39.70 39.14 38.89 39.19 39.53 39.86 41.55 42.51 42.49 42.50 41.69 41.64 42.19 42.66 43.02 43.72 44.42 44.71 45.61 46.20 46.35 45.07 44.11 43.75 43.39 42.82 42.64 42.54 41.55 40.88
46.99 47.94 48.05 46.81 46.04 44.64 43.91 43.37 43.11 42.25 41.38 40.97 41.41 41.17 41.88 40.01 39.65 40.38 41.23 44.35 43.01 42.59 43.37 43.78 43.78 43.83 43.75 44.14 44.70 45.02 45.52 45.45 46.26 45.24 44.17 43.94 43.83 43.23 42.67 42.29 41.36 38.76 39.48
48.45 43.84 45.04 45.79 44.67 43.69 43.34 42.37 41.94 41.69 41.70 41.61 40.90 40.83 43.13 42.64 42.36 43.13 44.44 45.07 45.04 45.36 45.52 45.08 45.28 45.67 45.31 45.29 45.73 46.31 46.44 45.83 45.32 45.19 44.97 45.20 44.60 44.38 43.60 43.10 43.14 42.34 42.71
47.51 46.42 42.77 44.78 44.00 43.91 43.74 43.44 43.44 43.25 42.72 42.27 42.09 40.17 34.54 43.02 43.30 43.99 44.83 45.25 45.82 45.91 45.88 46.08 45.75 45.40 46.01 46.64 47.47 46.88 46.24 45.89 45.71 45.94 46.45 44.56 44.53 43.52 44.39 44.61 44.30 44.32 43.29
47.34 46.49 44.95 44.39 44.61 44.32 44.42 44.75 44.59 44.65 44.34 43.93 44.10 42.89 36.60 44.14 43.98 44.71 45.19 45.91 45.81 46.26 47.10 46.42 46.14 46.80 47.65 48.34 47.77 47.48 48.19 47.01 47.38 45.99 44.99 45.49 45.49 45.73 45.94 45.65 44.52 45.11 45.35
48.35 46.38 45.56 45.48 45.51 43.26 45.92 45.61 45.18 45.25 45.36 46.03 46.37 45.47 44.70 44.38 44.78 44.70 45.00 45.73 45.62 46.20 46.70 47.42 46.74 47.01 48.12 49.23 50.20 50.55 48.86 48.27 48.99 48.57 48.18 48.36 48.35 49.47 48.71 47.24 46.71 46.78 47.71
48.34 47.98 46.89 46.49 46.11 46.05 46.44 45.93 45.42 42.34 45.64 45.99 46.15 46.32 46.17 46.24 45.92 45.63 45.55 45.62 45.70 46.82 47.58 47.78 47.76 47.78 49.84 50.27 50.72 50.02 50.28 53.09 53.07 53.02 53.21 51.09 48.52 46.77 47.37 47.23 48.73 50.59 50.75
48.53 48.31 47.63 47.48 47.56 47.13 47.41 47.67 46.66 46.27 46.00 46.74 46.60 46.71 46.98 47.38 46.96 47.05 47.54 47.80 46.84 46.09 47.29 48.85 48.07 48.62 48.24 47.01 46.43 45.56 36.89 34.72 45.39 37.44 52.62 51.14 50.04 48.99 48.02 48.85 50.91 51.69 51.21
49.33 49.08 48.72 48.67 48.35 48.46 48.65 48.41 48.43 48.05 48.03 48.00 47.96 47.73 47.65 47.63 48.40 48.28 48.69 48.59 49.53 49.95 49.32 49.13 49.92 50.35 49.47 47.95 44.05 35.58 34.14 35.10 42.55 34.80 43.30 50.04 51.79 51.53 52.47 51.96 52.02 50.83 50.65
MSLP
1016.74 1017.04 1017.29 1017.67 1017.52 1017.28 1017.20 1016.90 1016.68 1016.43 1016.21 1016.05 1015.75 1015.46 1015.06 1014.77 1014.40 1014.05 1013.61 1013.02 1012.76 1012.34 1012.05 1011.74 1011.20 1010.75 1010.44 1009.84 1009.39 1009.04 1008.97 1008.88 1008.73 1008.86 1008.91 1009.34 1009.68 1009.96 1010.51 1011.06 1011.50 1012.21 1012.48
1017.36 1017.46 1017.50 1017.84 1017.73 1017.34 1017.19 1016.81 1016.54 1016.41 1016.30 1016.02 1015.74 1015.50 1015.00 1014.59 1014.28 1013.87 1013.52 1013.16 1012.78 1012.51 1012.15 1011.81 1011.36 1010.83 1010.34 1009.98 1009.61 1009.28 1009.12 1009.10 1009.09 1009.09 1009.47 1009.67 1010.05 1010.73 1011.09 1011.39 1011.99 1012.53 1012.77
1017.69 1017.52 1017.57 1017.88 1017.67 1017.39 1017.06 1016.69 1016.40 1016.38 1016.25 1015.91 1015.61 1015.09 1014.72 1014.30 1014.00 1013.74 1013.45 1013.08 1012.81 1012.69 1012.36 1011.96 1011.58 1011.13 1010.69 1010.34 1009.94 1009.57 1009.26 1009.26 1009.22 1009.10 1009.62 1010.27 1010.80 1011.11 1011.77 1012.03 1012.33 1012.51 1012.86
1018.16 1018.02 1017.90 1018.05 1017.72 1017.48 1017.14 1016.60 1016.30 1016.12 1015.93 1015.59 1015.11 1014.73 1014.47 1014.25 1013.95 1013.74 1013.49 1013.31 1013.09 1012.82 1012.47 1011.91 1011.76 1011.54 1011.33 1010.90 1010.29 1010.10 1009.65 1009.41 1009.46 1009.27 1009.69 1010.38 1010.95 1011.61 1011.94 1012.25 1012.47 1012.63 1012.79
1018.54 1018.38 1018.34 1018.18 1017.71 1017.23 1016.84 1016.39 1015.99 1015.71 1015.29 1015.04 1014.72 1014.38 1014.28 1014.15 1014.29 1014.10 1013.84 1013.66 1013.34 1013.00 1012.82 1012.49 1012.19 1011.75 1011.72 1011.53 1011.14 1010.85 1010.29 1009.92 1009.82 1009.79 1010.12 1010.58 1011.16 1011.64 1012.03 1012.45 1012.64 1012.70 1012.72
1018.92 1018.64 1018.24 1017.93 1017.31 1016.89 1016.46 1015.90 1015.58 1015.25 1015.01 1014.71 1014.48 1014.34 1014.27 1014.36 1014.58 1014.32 1014.10 1013.90 1013.72 1013.48 1013.14 1012.80 1012.52 1012.30 1012.03 1011.83 1011.56 1011.16 1010.95 1010.68 1010.27 1009.97 1010.06 1010.78 1011.41 1011.80 1012.17 1012.70 1012.70 1012.80 1013.03
1019.10 1018.49 1017.89 1017.44 1016.95 1016.44 1016.07 1015.69 1015.44 1015.14 1014.86 1014.57 1014.32 1014.22 1014.33 1014.57 1014.54 1014.22 1014.12 1014.10 1013.94 1013.66 1013.34 1013.03 1012.73 1012.51 1012.22 1011.91 1011.64 1011.41 1011.15 1010.93 1010.59 1010.33 1010.27 1010.76 1011.39 1011.81 1012.29 1012.83 1012.93 1012.48 1013.07
1018.76 1018.19 1017.69 1017.01 1016.78 1016.29 1015.95 1015.68 1015.28 1014.98 1014.86 1014.53 1014.43 1014.47 1014.49 1014.83 1014.66 1014.29 1014.01 1013.86 1013.94 1013.73 1013.72 1013.38 1012.99 1012.82 1012.51 1012.09 1011.80 1011.65 1011.40 1011.10 1010.76 1010.49 1010.25 1010.86 1011.35 1012.06 1012.41 1012.43 1012.73 1012.89 1013.28
1018.49 1017.87 1017.49 1017.06 1016.70 1016.35 1016.02 1015.82 1015.48 1015.19 1014.91 1014.66 1014.59 1014.62 1014.64 1015.04 1014.79 1014.29 1013.76 1013.66 1013.61 1013.71 1013.95 1013.93 1013.64 1013.36 1012.92 1012.18 1011.91 1011.93 1011.67 1011.45 1011.04 1010.73 1010.84 1011.31 1012.00 1012.47 1012.83 1012.84 1012.51 1012.82 1013.44
1018.26 1017.99 1017.46 1017.23 1016.57 1016.56 1016.27 1015.90 1015.67 1015.35 1015.11 1014.94 1014.95 1014.94 1015.10 1015.10 1014.97 1014.56 1014.10 1013.78 1013.75 1013.55 1013.85 1013.97 1014.20 1014.00 1013.48 1012.74 1012.22 1012.24 1012.16 1011.95 1011.61 1011.60 1011.86 1012.34 1012.48 1012.80 1012.77 1012.66 1012.51 1012.74 1013.38
1018.41 1017.77 1017.35 1017.06 1016.70 1016.61 1016.43 1016.21 1015.97 1015.71 1015.45 1015.33 1015.26 1015.21 1015.32 1015.43 1015.29 1014.99 1014.66 1014.29 1014.24 1013.85 1014.06 1014.38 1014.72 1014.55 1014.12 1013.55 1013.08 1012.92 1012.88 1012.69 1012.47 1012.33 1012.66 1012.91 1013.12 1013.41 1013.59 1013.41 1013.49 1013.68 1014.18
1018.13 1017.71 1017.48 1017.05 1016.80 1016.95 1016.87 1016.66 1016.35 1015.97 1015.73 1015.74 1015.61 1015.40 1015.23 1015.35 1015.37 1015.30 1015.17 1015.07 1014.71 1014.49 1014.68 1014.93 1015.17 1015.06 1014.76 1014.28 1013.85 1013.61 1013.43 1013.29 1013.29 1013.32 1013.41 1013.71 1014.09 1014.48 1014.74 1015.00 1015.16 1015.15 1015.41
1018.25 1017.87 1017.46 1017.10 1017.22 1017.34 1017.19 1017.08 1016.95 1016.69 1016.17 1016.13 1016.19 1016.29 1016.35 1016.05 1015.74 1015.71 1015.62 1015.50 1015.41 1015.31 1015.39 1015.58 1015.63 1015.43 1015.21 1014.84 1014.46 1014.22 1014.00 1013.96 1014.04 1014.13 1014.42 1014.71 1015.01 1015.39 1015.66 1015.99 1016.05 1016.29 1016.38
1019.10 1018.56 1017.97 1017.90 1017.95 1017.91 1017.92 1017.86 1018.16 1018.07 1017.59 1017.40 1017.59 1017.55 1017.35 1017.02 1016.83 1016.65 1016.22 1015.91 1015.76 1015.79 1015.78 1015.92 1015.93 1015.81 1015.57 1015.39 1015.13 1014.92 1014.81 1014.78 1014.88 1015.13 1015.35 1015.61 1015.80 1016.02 1016.27 1016.68 1016.88 1017.11 1017.22
1019.53 1019.05 1018.48 1018.23 1018.48 1018.72 1019.19 1019.24 1018.90 1019.70 1019.46 1019.11 1019.00 1018.62 1018.33 1017.97 1017.86 1017.55 1017.18 1016.75 1016.49 1016.29 1016.23 1016.33 1016.31 1016.30 1016.22 1016.08 1015.92 1015.80 1015.70 1015.59 1015.76 1016.00 1016.15 1016.44 1016.67 1016.92 1017.24 1017.52 1017.64 1017.91 1017.94
1019.54 1019.19 1018.94 1018.95 1019.03 1019.14 1019.59 1019.97 1020.12 1020.19 1020.04 1019.89 1019.72 1019.37 1018.91 1018.62 1018.14 1017.81 1017.45 1017.20 1017.11 1016.99 1016.91 1016.88 1016.93 1016.96 1016.91 1016.81 1016.66 1016.59 1016.51 1016.56 1016.72 1016.79 1016.91 1017.12 1017.52 1017.79 1018.01 1018.24 1018.37 1018.49 1018.61
1019.63 1019.54 1019.44 1019.48 1019.61 1019.76 1019.97 1020.29 1020.55 1020.43 1020.42 1020.28 1020.12 1019.79 1019.42 1018.95 1018.42 1018.11 1017.95 1017.73 1017.76 1017.62 1017.56 1017.59 1017.57 1017.59 1017.60 1017.47 1017.36 1017.30 1017.34 1017.44 1017.48 1017.52 1017.60 1018.03 1018.29 1018.54 1018.71 1018.94 1019.12 1019.13 1019.19
1019.83 1020.06 1019.96 1020.03 1020.26 1020.73 1021.01 1021.12 1021.14 1021.04 1020.83 1020.70 1020.48 1020.24 1019.89 1019.50 1019.01 1018.71 1018.57 1018.31 1018.13 1018.08 1018.08 1018.13 1018.18 1018.24 1018.19 1018.14 1018.13 1018.14 1018.11 1018.09 1018.01 1018.02 1018.28 1018.65 1018.94 1019.18 1019.40 1019.55 1019.64 1019.59 1019.57
1020.45 1020.64 1021.02 1021.11 1021.25 1021.58 1021.63 1021.61 1021.59 1021.48 1021.28 1021.09 1020.86 1020.61 1020.32 1020.02 1019.67 1019.37 1019.02 1018.76 1018.73 1018.61 1018.55 1018.56 1018.69 1018.79 1018.85 1018.84 1018.84 1018.78 1018.67 1018.61 1018.53 1018.81 1019.11 1019.38 1019.68 1019.77 1019.95 1020.12 1020.14 1019.98 1019.79
1021.33 1021.61 1021.60 1022.09 1022.40 1022.50 1022.42 1022.33 1022.20 1022.00 1021.66 1021.44 1021.32 1021.17 1020.75 1020.33 1020.16 1020.02 1019.72 1019.46 1019.23 1019.10 1019.07 1019.07 1019.16 1019.20 1019.26 1019.30 1019.29 1019.21 1019.12 1019.10 1019.30 1019.51 1019.79 1019.99 1020.20 1020.23 1020.33 1020.46 1020.39 1020.13 1019.74
1022.19 1022.57 1023.01 1023.31 1023.47 1023.39 1023.10 1022.89 1022.69 1022.35 1022.01 1021.82 1021.71 1021.55 1021.16 1020.90 1020.75 1020.55 1020.25 1020.01 1019.78 1019.67 1019.59 1019.58 1019.66 1019.73 1019.64 1019.56 1019.52 1019.55 1019.56 1019.68 1019.76 1019.90 1020.10 1020.41 1020.45 1020.54 1020.59 1020.57 1020.41 1020.01 1019.72
1022.93 1023.61 1024.06 1024.24 1024.14 1023.84 1023.69 1023.28 1022.93 1022.52 1022.12 1021.98 1021.79 1021.61 1021.36 1021.13 1021.02 1020.88 1020.64 1020.38 1020.27 1020.08 1019.94 1020.03 1020.10 1020.23 1020.01 1019.82 1020.00 1019.89 1019.81 1019.76 1019.85 1020.17 1020.38 1020.49 1020.57 1020.62 1020.60 1020.47 1020.18 1019.78 1019.34
1023.48 1024.23 1024.56 1024.71 1024.57 1024.01 1023.79 1023.61 1023.28 1022.73 1022.38 1022.10 1021.88 1021.67 1021.52 1021.35 1021.17 1021.13 1021.12 1021.12 1021.03 1020.88 1020.80 1020.61 1020.49 1020.49 1020.44 1020.24 1020.05 1019.85 1020.07 1020.15 1020.23 1020.31 1020.36 1020.35 1020.32 1020.24 1020.05 1019.79 1019.48 1019.06 1018.55
1023.38 1023.79 1024.13 1024.29 1024.21 1023.82 1023.57 1023.35 1023.42 1023.24 1022.74 1022.41 1022.15 1021.89 1021.92 1021.96 1021.65 1021.53 1021.51 1021.53 1021.46 1021.40 1021.27 1021.17 1021.00 1020.90 1020.73 1020.56 1020.51 1020.53 1020.42 1020.16 1020.05 1019.74 1019.58 1020.12 1020.28 1020.15 1019.90 1019.46 1018.91 1018.32 1018.04
1023.58 1023.66 1023.82 1023.96 1023.94 1023.85 1023.47 1023.02 1022.66 1022.60 1022.91 1022.77 1022.51 1022.35 1022.13 1022.25 1021.95 1021.92 1021.90 1021.72 1021.83 1021.85 1021.84 1021.65 1021.70 1021.59 1021.58 1021.60 1021.56 1021.44 1021.43 1021.28 1021.02 1020.93 1020.10 1019.89 1019.95 1019.85 1019.59 1019.31 1018.79 1018.59 1018.66
1023.66 1023.65 1023.67 1023.67 1023.69 1023.31 1023.14 1023.03 1022.78 1022.67 1022.68 1022.70 1022.67 1022.57 1022.29 1022.21 1022.16 1022.03 1022.27 1022.27 1022.02 1021.95 1022.09 1022.19 1022.19 1022.16 1022.15 1022.19 1022.19 1022.06 1021.73 1021.42 1021.13 1020.93 1020.76 1020.07 1019.89 1019.65 1019.38 1019.31 1019.24 1019.26 1019.31
Wind_Speed
9 11 11 10 9 7 8 9 8 8 8 9 8 8 8 8 8 8 9 8 10 9 8 9 8 6 5 5 5 4 3 2 2 2 2 5 5 8 7 7 10 8 7
12 11 10 10 9 8 9 9 9 8 8 7 8 9 9 6 8 7 8 8 8 8 8 8 8 7 7 5 5 6 4 4 2 4 2 3 5 6 6 7 8 7 6
12 11 10 9 9 10 9 9 8 8 9 8 8 8 7 6 6 7 5 9 6 7 8 8 7 8 7 7 6 5 3 1 2 1 3 2 4 4 6 6 6 7 6
11 10 10 10 10 9 11 8 7 6 8 8 8 8 4 6 6 8 8 6 5 5 7 5 5 7 8 8 5 8 6 4 3 2 5 4 3 4 4 4 4 3 4
11 10 8 9 9 10 6 9 7 8 7 7 8 6 2 3 6 7 6 6 6 6 6 7 8 9 14 13 7 8 8 5 3 4 4 5 5 4 5 2 3 2 3
10 10 8 8 9 8 10 9 8 7 6 5 4 3 4 5 7 6 5 4 5 5 5 5 4 10 11 13 14 13 10 6 2 2 3 6 6 6 5 3 2 2 4
9 8 8 9 9 9 6 6 6 7 7 5 5 4 6 7 9 7 4 2 3 3 4 4 5 5 8 6 8 9 9 11 6 2 7 6 8 6 5 4 2 1 6
8 8 8 9 7 7 7 8 8 6 6 5 5 5 5 7 11 10 6 4 2 3 6 6 5 8 11 9 4 4 6 6 6 3 6 6 8 7 5 3 2 9 7
9 8 7 7 8 7 8 7 7 6 6 5 5 6 6 8 12 12 10 4 3 6 6 9 10 9 15 17 2 4 7 8 7 10 14 15 15 13 8 2 3 6 3
8 6 8 10 6 7 8 7 7 7 6 5 5 5 9 7 12 14 13 5 1 3 6 7 15 11 13 16 10 9 7 8 6 10 11 12 11 9 8 5 3 4 4
6 6 6 5 6 7 7 7 7 6 6 6 5 4 6 6 6 11 14 7 6 4 6 6 6 12 13 13 12 7 5 6 8 8 9 8 9 9 8 10 11 8 5
4 5 6 6 7 7 7 6 6 6 6 7 5 4 3 5 6 8 9 10 12 8 5 6 4 9 11 12 9 9 12 8 6 8 8 8 8 8 9 9 11 11 10
9 5 5 4 9 5 7 9 10 11 8 8 7 8 6 5 7 9 8 9 9 6 5 5 9 8 9 7 13 12 10 7 7 9 8 7 7 7 8 8 10 12 12
11 11 8 7 7 8 9 8 8 9 9 9 9 9 9 8 8 8 8 7 7 3 3 5 7 8 9 7 7 8 7 6 7 7 6 6 7 7 7 7 7 7 9
8 8 7 4 5 6 9 7 7 8 8 8 8 6 5 6 6 7 6 6 5 7 7 6 5 5 6 6 6 6 5 6 7 6 7 7 7 7 7 6 7 8 9
6 4 6 6 6 5 5 4 9 7 11 10 9 7 4 7 9 8 10 9 12 11 6 5 6 5 6 5 6 5 6 8 7 7 6 6 7 7 7 6 5 6 7
6 8 4 8 8 7 8 8 7 5 8 11 13 12 11 9 11 10 11 13 11 7 7 6 5 5 5 6 6 7 7 7 6 5 7 8 7 7 7 6 6 6 6
8 8 7 8 7 9 7 6 5 6 6 6 8 9 11 11 13 14 10 6 6 7 6 6 6 6 6 6 6 6 5 4 5 6 8 7 6 6 6 6 5 6 5
8 7 8 7 8 10 7 7 6 6 6 5 4 6 8 9 10 12 10 6 6 5 5 6 6 6 6 6 6 6 5 5 6 7 7 7 6 6 7 6 6 5 3
8 13 11 11 10 8 7 7 7 7 6 6 6 6 5 6 7 7 6 6 6 5 6 7 6 6 6 6 5 5 6 6 7 7 6 6 5 5 6 5 3 2 1
9 12 15 10 8 7 5 6 6 6 5 5 5 3 3 5 6 6 5 5 5 4 4 5 7 6 5 4 5 6 6 5 4 3 5 6 5 5 5 3 2 3 3
11 11 8 8 5 5 5 5 7 5 4 5 4 3 4 6 6 6 5 4 6 8 6 6 6 6 6 7 6 4 4 3 4 6 6 5 4 3 2 2 1 3 4
11 11 8 6 4 4 3 3 4 6 6 6 5 5 6 7 8 9 9 8 7 8 7 6 5 5 4 1 3 6 6 5 6 5 4 3 2 1 2 3 5 5 5
9 9 8 6 3 3 7 4 4 2 4 8 6 6 8 8 5 5 4 4 6 7 7 6 4 4 4 6 8 6 5 4 2 2 4 6 4 3 3 4 5 2 2
9 7 6 6 6 5 4 5 3 4 4 1 4 5 4 5 3 4 4 9 8 7 9 9 8 10 12 10 9 8 6 7 5 7 3 4 5 7 5 5 1 9 11
6 6 5 5 5 2 5 6 7 7 8 6 4 3 3 4 4 4 8 9 9 10 10 7 10 13 13 10 9 8 6 6 6 7 4 4 3 3 4 7 10 7 8
Wind_Direction
357 5 357 3 351 344 328 318 312 322 333 330 327 329 328 325 321 316 316 317 337 333 339 333 330 325 332 331 327 333 294 338 329 51 35 94 82 107 115 139 101 81 65
1 3 359 350 335 335 322 324 336 340 329 316 336 317 297 321 311 327 327 326 321 329 327 322 331 330 318 321 333 328 44 34 323 124 97 85 65 91 81 83 98 104 88
358 349 0 340 331 334 328 312 340 334 311 324 304 294 329 311 307 304 309 307 329 340 327 321 323 329 1 354 354 354 13 47 45 120 120 85 92 95 96 95 116 109 116
343 347 345 330 326 317 304 322 327 320 311 313 295 311 314 320 350 351 3 20 4 344 344 1 33 25 22 356 358 0 356 30 22 111 116 110 96 105 93 102 77 60 107
342 341 338 322 312 296 310 305 298 302 294 304 314 311 326 316 22 3 25 4 358 10 17 19 16 31 35 26 23 13 359 12 350 120 117 116 127 128 121 85 95 127 104
334 324 327 302 291 305 299 295 304 296 309 307 341 350 19 43 357 3 19 358 18 22 13 1 2 32 20 21 22 30 34 0 358 129 110 144 142 118 119 118 132 152 118
323 301 301 298 305 306 331 322 330 338 327 334 358 10 63 34 0 331 32 8 353 354 353 351 10 14 8 356 359 6 26 18 8 309 135 148 139 135 129 148 195 54 92
303 304 317 334 344 341 338 346 348 351 346 357 33 45 43 43 0 358 326 218 141 57 31 353 341 20 358 339 324 351 15 7 5 335 127 122 123 124 133 139 185 107 95
313 340 347 342 345 358 349 356 352 352 353 30 49 54 49 44 7 358 345 156 150 87 72 41 23 15 351 357 171 48 34 16 26 78 93 96 95 85 69 20 17 119 103
357 347 352 350 329 13 360 6 4 10 14 38 52 50 39 56 14 7 11 59 46 117 87 54 35 18 6 2 24 47 38 17 43 86 89 84 81 70 28 29 27 98 96
334 337 6 354 339 24 17 12 10 16 25 34 46 40 67 37 39 22 16 19 0 32 51 53 37 21 17 11 26 34 46 31 50 71 83 84 75 62 47 40 40 36 78
352 346 12 5 23 26 19 15 13 358 37 36 28 4 46 69 32 34 19 22 7 53 56 48 63 23 19 22 24 59 50 53 71 76 74 71 72 67 58 55 55 58 56
0 350 346 1 28 53 37 33 18 0 7 24 16 27 21 342 29 26 12 17 39 57 47 72 64 33 25 18 25 50 49 60 70 74 70 65 78 94 93 77 67 66 62
2 339 344 57 33 41 27 40 31 10 9 26 28 20 1 8 10 359 359 13 69 80 100 69 61 48 35 34 41 45 43 50 69 72 70 70 69 68 77 73 77 78 76
347 319 339 45 67 70 55 29 51 46 38 35 18 2 357 355 355 348 9 16 13 33 65 56 48 45 41 39 47 45 31 53 68 67 70 73 71 73 69 68 72 83 86
293 357 11 36 47 56 110 78 54 45 58 43 27 20 346 1 345 359 7 32 55 54 60 56 62 49 48 47 55 57 53 63 64 70 67 76 80 80 80 66 71 78 83
360 22 47 53 52 43 42 33 38 1 95 50 25 16 17 3 13 19 33 61 56 59 67 63 61 51 53 46 51 57 65 61 69 71 82 85 86 80 75 70 71 77 73
28 38 48 61 61 60 49 43 35 33 23 10 8 8 16 18 27 37 43 70 56 48 59 65 62 59 56 59 57 61 59 65 63 62 72 80 76 80 79 75 73 84 87
55 51 63 70 68 56 39 36 40 32 21 22 14 8 7 18 29 32 22 57 67 52 42 60 70 68 68 64 65 66 59 51 66 77 75 75 75 83 80 78 82 73 56
53 61 58 62 57 46 42 47 43 39 28 36 36 21 19 39 42 39 33 35 44 44 52 65 65 68 72 71 69 66 65 63 74 81 85 85 81 81 87 93 97 130 256
78 62 62 60 52 49 51 50 50 38 28 42 45 19 357 53 50 47 45 40 35 31 35 62 73 81 85 91 81 78 77 80 74 75 82 87 93 97 103 119 186 224 236
76 73 69 65 58 31 27 3 20 38 20 31 33 43 55 65 57 56 49 41 43 41 68 67 64 68 65 66 79 88 109 112 89 89 101 106 117 124 137 154 202 282 288
97 97 90 78 56 328 25 19 28 14 23 40 39 49 57 62 58 58 58 57 54 52 54 62 64 70 76 91 105 73 75 102 115 130 132 140 92 90 179 197 207 220 239
99 104 116 122 122 40 34 62 118 83 358 33 24 51 66 69 64 54 71 91 73 67 63 66 65 57 51 55 50 50 17 55 69 38 72 132 141 178 226 272 296 292 32
92 107 92 101 88 61 34 51 58 108 158 130 60 42 41 85 68 60 59 73 75 77 76 67 60 59 57 53 46 36 19 24 9 328 342 125 166 196 226 246 305 41 46
110 105 113 105 99 100 74 58 57 69 64 63 68 80 68 56 66 61 80 68 57 70 75 69 68 65 53 34 30 15 358 340 327 323 299 253 123 13 44 44 50 53 48